Showing default

COSMOS 86, 1584

Orbit data source: Space-Track

COSMOS 86, 1584 is a payload satellite owned by OKB-10 (CIS) in LEO that was launched on Sat, 18 Sep 1965 UTC via a KOSMOS 65S3 launch vehicle from the Tyuratam Missile And Space Complex (TTMTR). Payload-class satellites include a variety of spacecraft equipped with specific instruments for various scientific and technological missions. These include communications satellites like Starlink; space stations such as the ISS; scientific satellites like the Hubble; Earth observation satellites from companies like Planet Labs, Umbra, and HawkEye 360; GPS; miniature CubeSats for education and research; and military/defense satellites.

Loading next visibility...
Identifier
1584, 1965-073A
Orbit
LEO
Country
Flag of CISCIS
Related business
Manufacturer
OKB-10
Mission
Defense Communications
Bus & Motor
STRELA-1 11F610, Unknown motor
Mass
50 kg wet, 50 kg dry
Launch date (UTC)
1965-09-18 (60 years ago)
Launch vehicle
KOSMOS 65S3
Launch site
Tyuratam Missile And Space Complex (TTMTR)
Object type
Payload
Rocket body
Debris
Shape & HBR
Poly, 0.4 m
Radar Cross Section
0.731 m², Medium (>0.1 m² and < 1m²)

Expand to show TLE details & history
Last TLE update: 13 hours ago

TLE from 13 hours ago
0 COSMOS 86
1 01584U 65073A   25242.66463716 -.00000076  00000-0  11312-3 0  9998
2 01584  56.0576 207.5501 0211740 250.0439 284.0389 12.51913878741064
Epoch: 2025-08-30T15:57Z
TLE epoch observation values (Epoch: 2025-08-30T15:57:04.65Z)
Latitude
6.82859°
Longitude
164.58507°
Altitude
1,420.022 km
Speed
7.169 km/s
True Right ascension
01h 31m 48s
True Declination
6° 47' 30"
Sunlit
Object was in full shadow at epoch
Visualization orbit readout
Latitude
Unknown
Longitude
Unknown
Altitude
Unknown
Speed
Unknown
Apparent Right ascension
Unknown
Apparent Declination
Unknown
Sunlit
N/A
Visualization observer readout
Local Sidereal Time
20:21:16
Azimuth
Unknown
Elevation
Unknown
Doppler factor
Unknown
Orbital elements
Apogee altitude
1,622.21 km
Perigee altitude
1,290.436 km
Semi-major axis
7,834.46 km
Eccentricity
0.02117
Inclination
56.0576°
RAAN
207.5501°
Arg. of periapsis
250.0439°
True anomaly
281.67048°
Mean anomaly
284.0389°
Eccentric anomaly
282.85613°
Mean motion
3.12989 °/min
Orbital period
115.02 mins
BSTAR
0.00011312
Loading maneuver chart data...
Computing Atmospheric mass density...
Loading historical data...
Loading historical data...
Loading historical data...
Loading historical data...
Loading historical data...
Loading historical data...
Loading historical data...

Documentation

Showing up to 5 results
|